Location: Augustenthal
(51.7167°N, 10.2833°E)
Time: 17:30:14
(UTC+00:00)

Cosmos 371 Rocket - Pass Details

Date: 18 May 2021
Orbit: 684 x 699 km, 74.0° (Epoch: 22 June)

Event Time Altitude Azimuth Distance (km) Brightness Sun altitude
Exits shadow 23:36:49 29° 147° (SSE) 1,274 4.2 -18.4°
Maximum altitude 23:38:32 39° 105° (ESE) 1,054 4.1 -18.3°
Drops below altitude 10° 23:43:03 10° 38° (NE) 2,173 6.7 -18.3°
Sets 23:45:30 0° 30° (NNE) 3,096 7.9 -18.2°
